sat.trackr.live / text

‹ back to catalog

STARLINK-33829

NORAD 63496 · 2025-071D

PAYLOAD ACTIVE UNKNOWN

§ Identity

Operator
Country
US
Launch date
2025-04-07
Launch site
AFWTR
Launch vehicle
Mass (kg)
RCS (m²)

Purposes: comms

External: N2YO · Heavens-Above · Gunter

§ Orbital elements

Epoch: 2026-05-25T00:04:46.930080Z

Period
94.10 min
Inclination
53.1591°
Eccentricity
0.0001591
Mean motion
15.30212598 rev/d
Perigee alt
474.1 km
Apogee alt
476.3 km
Semi-major
6,853.3 km
B*
6.2879e-4
RAAN
145.4703°
Arg perigee
92.4430°
Mean anomaly
267.6753°
Rev number
6,439

§ Raw data

STARLINK-338291 63496U 25071D   26145.00332095  .00018317  00000+0  62879-3 0  99972 63496  53.1591 145.4703 0001591  92.4430 267.6753 15.30212598 64390

JSON: /api/v1/satellites/63496 · /tle

For live sub-satellite position, see the globe view (requires WebGL).

§ Visibility from observer

Set your observer location to see the next 7 days of passes ≥ 10°. The values pass through the URL so the page stays shareable.

No JS? Fill the form by hand. The geolocation button needs JavaScript.